Location: Luz Observatory
(34.5000°N, 117.2833°W)
Time: 00:00:15
(UTC-07:00)

Okean 3 Rocket - Visible Passes

Search period start: 04 July 2015 00:00
Search period end: 14 July 2015 00:00
Orbit: 615 x 646 km, 82.5° (Epoch: 03 July)

Date Brightness Start Highest point End Pass type
(mag) Time Alt. Az. Time Alt. Az. Time Alt. Az.
04 Jul 5.1 04:26:30 10° N 04:30:43 38° E 04:34:57 10° SSE visible
05 Jul 3.7 04:47:17 10° N 04:51:50 85° E 04:56:23 10° S visible
06 Jul 6.5 03:32:13 10° NE 03:34:24 14° ENE 03:36:50 10° ESE visible
06 Jul 4.1 05:08:32 10° NNW 05:12:49 43° W 05:17:06 10° SSW visible
07 Jul 5.6 03:51:53 10° NNE 03:55:46 28° ENE 03:59:43 10° SE visible
08 Jul 4.1 04:12:27 10° N 04:16:57 61° E 04:21:27 10° SSE visible
09 Jul 3.7 04:33:30 10° NNW 04:37:59 60° W 04:42:27 10° S visible
10 Jul 6.0 03:17:24 10° NNE 03:20:48 21° ENE 03:24:17 10° SE visible
10 Jul 4.6 04:55:03 10° NNW 04:58:56 28° W 05:02:45 10° SSW visible
11 Jul 4.7 03:37:43 10° N 03:42:03 43° E 03:46:08 11° SSE visible
11 Jul 5.5 05:17:36 10° WNW 05:19:49 13° W 05:21:48 10° WSW visible
12 Jul 3.5 03:58:35 10° N 04:03:08 84° W 04:06:11 21° S visible
13 Jul 6.3 02:43:09 10° NE 02:45:46 16° ENE 02:48:35 10° ESE visible
13 Jul 4.2 04:19:54 10° NNW 04:24:07 38° W 04:26:20 23° SW visible
